Dewpoint
-3 -3 -3 -2 -3 -3 -4 -2 -1 0 4 3 2 1 1 1 1 0 1 0 -0 -0 1 2 3 5 5 5 5 7 8 6 5 5 5 5 7 6 6 7 7 8 9 9
-3 -2 -1 -3 -4 -4 -4 -2 -0 0 3 2 1 1 2 1 1 1 1 1 1 0 -1 -0 1 1 3 5 5 5 5 6 6 5 5 5 4 6 7 7 6 6 6 7
-1 -1 -2 -3 -1 -1 1 -1 0 1 2 1 1 2 2 2 2 1 1 1 1 1 0 -1 -1 -1 -0 1 2 4 5 6 6 5 4 4 5 6 4 4 3 3 4 6
-2 -3 -5 -3 -1 0 0 0 0 1 2 1 2 2 2 2 2 2 2 1 1 0 0 0 -0 -1 -1 -2 -1 -0 0 1 3 3 4 4 3 3 3 3 4 4 6 7
-2 -2 -4 -0 -0 1 1 -0 0 1 1 1 1 2 2 2 2 2 2 2 2 2 1 1 -0 -1 -1 -2 -2 -2 -2 -2 -1 -1 0 1 2 3 3 3 4 4 6 7
-2 -1 -1 -3 -0 -1 -1 0 1 1 1 1 1 3 2 1 1 2 2 1 2 3 2 1 1 0 -1 -1 -1 -2 -2 -1 -1 -1 -1 0 1 1 2 3 4 5 6 7
-2 -2 -3 -2 -1 -1 -1 -6 1 1 1 1 0 0 1 -0 -0 0 2 2 1 1 1 1 1 1 0 -0 -0 -1 -1 -1 -2 -2 -1 -1 0 1 2 2 3 4 4 5
-3 -2 -5 -1 -0 -1 -3 1 0 0 0 -0 -0 -0 -1 -2 -2 -2 1 2 1 1 1 1 1 1 1 1 1 1 0 -0 -1 -1 -1 -1 0 1 2 3 3 3 3 2
-4 -4 -7 -2 -3 -2 -1 -1 -0 1 0 -0 -1 -3 -4 -3 -3 -3 -2 1 2 1 1 1 1 1 1 1 2 2 2 1 -0 -0 -0 0 0 1 2 3 3 3 2 2
-5 -8 -4 -4 -2 -1 -1 -2 -1 -1 -2 -2 -3 -3 -3 -3 -4 -3 -3 -2 1 1 1 1 1 1 1 1 1 1 2 2 2 2 2 2 2 2 3 3 3 3 3 2
-4 -5 -5 -4 -4 -1 -1 -1 -2 -3 -3 -3 -4 -4 -4 -3 -4 -4 -3 -3 -0 0 -0 0 0 0 1 1 1 2 2 3 3 2 2 1 2 2 2 2 3 3 3 3
-6 -7 -7 -6 -5 -3 -2 -2 -3 -4 -4 -4 -4 -4 -3 -3 -3 -3 -3 -1 -0 1 -0 -0 -0 -1 -1 -0 1 1 2 2 2 2 2 2 2 2 2 2 2 3 3 3
-8 -8 -6 -6 -4 -3 -3 -3 -4 -4 -6 -4 -4 -3 -3 -3 -2 -2 -0 -0 0 1 1 1 -1 -1 -1 -1 -1 0 1 1 1 2 2 2 2 2 2 2 2 2 2 2
-8 -7 -4 -4 -4 -4 -5 -5 -5 -6 -4 -4 -3 -3 -3 -2 -2 -2 -1 -1 0 1 1 1 0 -0 1 1 0 -1 -1 -1 -1 0 1 1 1 1 1 1 1 1 1 1
-9 -8 -7 -7 -7 -6 -5 -6 -6 -4 -2 -1 -2 -2 -3 -2 -2 -1 -1 -1 0 1 1 1 1 1 1 1 1 1 1 1 1 1 -0 -1 -0 1 1 1 1 0 0 1
-8 -7 -7 -7 -7 -5 -5 -6 -5 -3 -2 -1 -1 -1 -2 -1 -1 -1 -1 -0 0 1 1 1 1 0 0 0 0 0 -0 -0 -0 -0 -0 -0 -0 -0 -1 -0 0 0 1 0
-6 -4 -5 -5 -5 -5 -6 -6 -5 -3 -2 -2 -1 -1 -2 -3 -3 -2 -1 -1 -0 -0 -0 -0 -0 -1 -1 -1 -1 -1 -1 -1 -1 -1 -1 -2 -3 -2 -2 -2 -2 -1 -1 -0
-11 -11 -8 -8 -6 -6 -5 -4 -3 -2 -2 -2 -1 -1 -2 -3 -3 -3 -2 -2 -2 -2 -2 -3 -3 -3 -3 -3 -4 -4 -5 -5 -4 -4 -3 -3 -4 -4 -4 -4 -4 -3 -2 -2
-9 -9 -8 -6 -6 -6 -5 -4 -3 -3 -2 -2 -2 -2 -3 -4 -5 -4 -5 -8 -11 -12 -13 -14 -14 -14 -13 -11 -10 -10 -12 -13 -14 -14 -12 -7 -5 -5 -5 -5 -4 -3 -3 -2
-8 -7 -6 -5 -5 -4 -4 -3 -3 -2 -2 -2 -3 -5 -6 -10 -14 -16 -16 -14 -11 -10 -10 -9 -9 -13 -17 -16 -14 -12 -10 -10 -13 -15 -17 -16 -14 -7 -6 -5 -5 -4 -4 -3
-6 -5 -4 -4 -4 -4 -4 -3 -3 -2 -2 -3 -6 -9 -13 -12 -8 -5 -4 -4 -4 -4 -3 -3 -4 -5 -6 -9 -14 -15 -14 -11 -8 -9 -11 -13 -15 -14 -8 -7 -6 -5 -4 -4
-5 -4 -4 -4 -4 -4 -4 -4 -3 -2 -3 -5 -9 -10 -7 -5 -4 -4 -5 -7 -9 -8 -7 -7 -6 -4 -4 -5 -6 -7 -10 -14 -15 -15 -15 -15 -16 -16 -12 -7 -6 -6 -5 -5
-4 -4 -4 -4 -4 -5 -4 -3 -3 -3 -4 -6 -9 -7 -5 -7 -9 -11 -11 -11 -12 -12 -13 -12 -11 -10 -8 -7 -5 -5 -5 -6 -8 -11 -16 -16 -16 -16 -14 -12 -12 -10 -8 -8
-4 -4 -4 -4 -4 -4 -4 -4 -4 -4 -6 -7 -6 -7 -10 -12 -14 -16 -18 -18 -18 -17 -17 -17 -18 -17 -16 -14 -11 -8 -7 -6 -6 -7 -8 -14 -15 -15 -14 -10 -7 -9 -13 -14
-4 -4 -4 -4 -5 -4 -4 -4 -5 -5 -6 -8 -11 -13 -16 -19 -19 -17 -16 -15 -15 -15 -15 -16 -16 -16 -17 -17 -16 -14 -12 -8 -6 -7 -7 -8 -13 -14 -14 -9 -8 -9 -9 -10
-4 -4 -5 -6 -4 -4 -4 -4 -5 -7 -9 -13 -17 -18 -19 -18 -16 -15 -15 -14 -14 -14 -15 -15 -16 -16 -16 -15 -16 -16 -15 -14 -10 -7 -7 -8 -8 -11 -13 -13 -9 -8 -8 -8
-4 -5 -4 -4 -4 -5 -6 -8 -9 -11 -14 -17 -18 -17 -16 -15 -14 -14 -14 -14 -14 -14 -15 -15 -15 -15 -15 -15 -14 -14 -14 -14 -14 -12 -8 -8 -8 -8 -9 -11 -12 -9 -9 -10
Wind_Speed
2 3 2 4 3 4 3 4 4 3 1 5 7 6 11 20 22 25 25 24 22 21 20 20 17 11 6 1 6 7 6 11 7 10 6 4 9 14 17 17 16 16 16 17
4 2 4 2 5 4 3 3 2 2 3 4 10 13 18 19 18 20 20 19 18 17 17 17 16 16 13 9 3 4 10 10 8 11 16 13 9 13 13 13 13 13 14 14
3 2 4 5 4 3 1 2 4 2 3 3 3 7 11 13 15 16 15 14 16 16 14 14 14 13 12 11 9 6 2 4 9 9 11 16 19 15 14 13 13 14 14 14
3 4 4 5 2 2 3 3 4 3 3 4 5 3 8 8 9 10 11 12 13 12 10 10 9 7 8 9 7 6 4 1 2 5 8 11 11 12 12 12 13 14 14 14
3 2 4 1 4 4 4 4 7 6 5 3 3 4 2 7 10 10 9 10 10 10 9 9 9 8 6 4 3 3 3 4 4 4 6 8 10 12 14 14 14 14 15 16
1 2 4 4 4 6 4 3 8 9 7 4 3 3 2 7 8 9 10 10 10 10 10 10 11 11 8 5 4 4 5 7 8 8 9 11 12 12 14 15 15 15 16 18
2 2 6 4 8 7 2 5 12 13 9 6 2 2 7 8 9 10 10 12 11 10 11 9 9 10 11 10 9 8 8 10 12 15 14 15 16 17 17 17 18 18 18 19
1 1 6 13 7 6 5 8 13 13 12 7 5 6 4 4 7 10 10 11 10 9 9 10 10 10 10 10 11 12 13 13 13 15 18 18 18 19 20 20 20 20 20 20
8 5 5 22 5 10 12 11 10 13 11 9 7 7 5 5 6 8 9 11 11 7 6 8 10 12 13 13 14 14 13 13 13 14 15 17 19 20 21 21 22 23 23 23
2 3 8 18 12 12 11 10 12 13 10 9 9 9 10 11 12 8 10 10 11 9 9 9 9 12 14 14 15 15 15 12 11 11 11 13 16 18 20 22 23 23 24 25
6 9 7 14 24 19 15 11 11 9 8 8 9 10 10 10 12 12 10 11 12 9 12 11 13 15 18 17 15 14 12 11 10 9 11 11 14 15 17 20 21 22 23 24
7 13 8 5 19 22 20 15 11 9 7 7 7 7 6 10 9 9 9 11 12 11 11 11 14 17 18 18 16 12 9 11 10 9 10 12 14 14 14 16 21 23 23 24
7 12 16 8 13 19 17 13 11 9 9 6 5 4 5 5 4 5 8 10 10 10 9 10 10 15 15 14 14 12 11 10 11 11 8 9 11 12 14 14 16 21 23 21
25 17 11 17 12 18 15 13 11 9 7 7 5 4 4 5 6 8 9 9 9 11 10 10 10 12 13 14 15 14 12 13 13 13 13 12 12 13 13 12 14 17 19 18
31 26 19 18 16 18 16 14 13 11 10 8 8 4 3 4 7 6 5 8 9 11 10 11 12 13 14 14 14 15 17 19 20 19 17 16 15 15 15 15 15 13 15 15
29 27 21 19 21 20 19 18 16 15 12 10 8 8 6 5 5 6 6 9 9 11 13 13 13 14 15 15 17 17 18 18 19 21 20 19 18 18 18 18 18 17 15 15
29 24 25 24 26 25 23 19 17 16 13 11 9 9 8 7 6 8 9 9 10 12 14 14 14 15 16 17 17 17 18 19 20 21 21 21 19 18 17 18 19 19 18 17
31 28 31 31 29 25 22 20 18 17 14 11 11 9 8 8 9 11 11 12 12 11 11 12 13 13 13 14 14 15 15 16 17 19 20 22 22 20 19 18 18 18 18 17
31 26 26 26 24 22 21 22 20 15 14 12 11 9 8 8 9 8 9 10 10 11 10 10 10 12 12 12 13 13 14 15 16 16 17 16 17 20 19 15 15 16 16 16
29 24 22 24 22 22 22 21 18 16 13 13 9 8 8 7 7 7 8 8 9 11 11 12 13 13 14 14 15 15 15 15 16 15 16 16 16 16 15 14 15 16 17 15
29 25 25 25 23 21 21 20 18 16 13 10 9 9 7 6 6 8 10 12 10 14 14 14 15 15 15 15 16 17 17 18 17 17 17 17 15 15 15 15 14 14 12 12
31 29 27 25 23 21 19 15 14 13 11 10 9 9 8 8 9 10 12 14 12 11 12 14 14 15 15 15 16 16 17 18 18 19 19 19 17 15 13 14 15 14 14 12
31 30 27 25 22 18 17 15 13 12 11 10 9 9 10 10 10 10 7 7 9 10 11 13 14 15 16 17 18 17 18 18 18 18 18 18 16 15 12 8 9 11 13 14
30 27 24 21 19 19 18 16 14 12 10 10 10 9 9 7 6 6 6 7 9 10 12 13 14 15 16 18 18 19 18 18 18 18 18 18 17 14 13 11 11 9 9 9
29 26 24 23 21 17 15 14 12 11 10 9 9 7 7 6 5 5 6 8 11 13 16 17 19 20 20 20 19 19 19 18 17 17 17 18 18 17 16 16 16 12 10 10
28 26 24 19 15 15 14 13 11 10 9 9 7 7 6 6 7 8 10 13 16 19 21 22 22 23 23 24 23 22 21 19 18 18 18 18 18 18 17 18 18 17 16 13
24 20 20 19 17 15 13 11 10 10 9 8 8 7 7 8 10 13 16 19 21 23 24 24 24 24 23 22 23 23 22 22 20 19 18 18 18 18 20 18 20 21 19 16
Wind_Direction
331 329 332 246 285 335 88 197 119 269 38 340 342 9 17 22 39 44 46 49 51 48 48 51 53 49 30 272 220 217 195 176 222 278 313 305 248 240 248 243 239 237 241 240
342 66 40 310 280 245 223 205 169 287 194 327 342 22 39 36 33 35 38 37 40 49 50 50 50 47 49 51 53 217 225 235 234 243 247 279 270 284 255 242 238 238 235 233
316 14 40 4 217 209 285 158 158 208 189 290 349 59 36 29 38 35 30 23 22 30 38 44 40 43 56 54 49 49 62 193 198 213 217 217 250 250 241 238 235 236 234 230
237 22 27 241 154 214 206 223 205 145 136 270 45 112 53 39 19 17 13 14 19 21 20 28 33 38 42 48 46 41 39 20 221 227 237 239 246 245 243 243 242 241 234 228
106 185 280 265 213 185 178 271 196 178 208 259 315 212 84 26 16 7 354 348 358 9 10 4 4 11 16 23 11 354 334 316 299 266 250 248 245 247 248 245 243 238 227 223
32 124 202 223 172 136 102 287 186 170 198 218 331 188 249 343 340 353 2 353 351 337 338 349 5 8 2 345 314 288 279 278 273 274 269 263 257 254 254 250 245 238 232 225
225 233 283 199 156 131 148 232 177 185 194 181 160 227 297 323 312 316 339 348 340 344 346 341 337 343 348 343 328 312 290 278 276 270 267 263 258 252 251 249 244 238 233 230
135 53 291 155 128 173 182 153 178 190 206 212 213 245 272 298 318 332 324 334 341 342 341 342 339 338 335 334 330 318 308 299 285 270 261 261 259 253 249 245 241 238 233 230
185 218 236 187 232 192 173 177 189 197 215 209 219 243 259 284 292 311 315 312 325 328 344 347 343 340 339 339 334 329 321 306 291 277 269 262 258 256 253 249 245 240 234 232
3 268 213 208 202 202 204 202 194 207 202 221 249 262 266 267 270 287 304 300 295 305 318 330 343 347 341 334 328 328 327 319 309 294 278 266 257 253 248 247 244 242 240 237
260 273 285 242 218 214 221 224 207 212 221 237 255 272 280 284 283 259 276 290 293 278 289 314 332 336 329 329 329 326 326 323 317 303 287 280 275 268 258 253 250 248 246 244
225 226 210 233 225 216 219 216 217 215 226 224 228 255 278 285 289 263 268 285 286 268 272 288 305 317 316 317 317 320 330 330 320 313 303 297 298 291 278 260 247 243 241 242
220 234 225 223 182 200 213 213 214 225 209 211 207 238 265 276 281 256 272 284 288 274 264 274 304 315 318 312 309 315 307 305 311 311 307 297 290 290 292 278 265 251 246 246
232 221 176 186 196 201 209 209 208 201 209 198 203 235 250 256 246 245 261 264 272 273 268 278 290 297 308 311 309 312 315 313 310 298 294 289 285 285 281 285 279 268 248 248
225 222 234 221 207 198 202 199 194 193 185 207 207 203 229 256 261 271 249 260 278 271 268 270 284 292 297 297 301 306 299 293 293 294 293 288 281 276 278 277 270 269 265 258
205 212 219 212 208 200 199 197 197 188 198 203 214 214 221 234 244 259 260 263 273 279 278 279 284 288 289 291 293 294 295 295 298 295 290 285 279 275 274 272 274 274 270 265
184 193 201 203 201 200 206 206 202 202 200 205 217 231 236 251 268 267 276 276 275 276 280 284 288 291 292 294 294 292 292 292 291 290 288 284 278 277 274 269 268 266 266 265
230 232 219 213 202 202 202 203 199 204 204 211 224 234 244 255 260 274 281 289 292 295 296 293 297 297 297 298 300 303 304 304 302 300 299 293 285 276 270 270 271 271 266 258
219 219 216 211 209 207 205 203 207 211 208 215 226 235 256 273 280 282 286 296 302 301 303 304 304 302 298 297 299 306 309 310 309 308 309 308 298 288 273 269 273 271 270 262
207 208 205 200 199 202 199 205 212 201 208 219 220 241 255 261 268 278 285 297 305 306 305 305 306 303 298 296 294 295 298 304 305 307 306 302 297 298 289 278 280 275 262 267
197 194 193 191 188 191 204 211 199 201 210 210 224 239 243 249 263 277 289 296 306 297 295 297 299 301 301 300 297 297 296 294 298 302 304 302 300 298 289 281 278 282 284 265
192 191 191 190 191 193 202 205 199 201 203 213 225 236 249 270 280 283 293 299 304 301 301 302 300 300 300 298 298 300 298 297 295 292 294 298 300 295 289 282 273 271 264 262
189 189 192 193 196 192 192 197 201 206 214 224 232 244 265 282 289 294 301 296 308 313 318 320 315 307 303 300 298 300 302 299 293 290 293 289 289 289 277 276 284 278 270 265
188 189 194 193 195 192 185 190 199 210 218 228 246 259 270 274 281 291 307 320 325 329 331 328 324 318 311 307 304 299 299 300 296 300 285 289 285 275 266 266 269 278 279 268
192 190 191 194 199 188 179 193 205 215 223 236 245 246 260 273 278 287 302 313 317 318 318 316 315 314 312 310 307 303 300 296 294 293 295 280 282 278 259 257 254 249 267 275
191 191 197 194 184 183 189 201 212 221 231 230 236 243 250 261 278 294 303 309 312 312 311 310 309 308 307 307 307 305 303 298 291 286 287 285 276 273 269 258 265 260 252 254
196 190 178 179 187 193 194 198 211 221 224 234 240 248 260 270 284 295 301 305 308 309 309 308 306 305 304 303 302 302 301 300 298 292 283 283 278 274 262 256 256 263 267 272
Height
1489 1486 1484 1486 1483 1481 1499 1489 1501 1486 1482 1479 1476 1473 1471 1467 1464 1462 1461 1459 1457 1452 1450 1447 1446 1445 1445 1446 1448 1449 1451 1452 1455 1456 1459 1461 1463 1466 1467 1468 1469 1471 1474 1476
1508 1487 1489 1485 1480 1479 1478 1478 1478 1478 1478 1480 1474 1473 1472 1471 1468 1466 1465 1463 1462 1460 1457 1454 1451 1450 1449 1449 1450 1451 1451 1453 1453 1455 1457 1460 1460 1463 1465 1465 1465 1467 1470 1472
1502 1487 1499 1505 1479 1476 1473 1472 1476 1485 1480 1479 1476 1474 1474 1472 1471 1470 1469 1465 1463 1461 1460 1457 1455 1455 1454 1454 1451 1452 1452 1453 1454 1455 1458 1460 1461 1462 1463 1464 1465 1467 1469 1471
1512 1506 1514 1479 1473 1474 1474 1474 1474 1475 1478 1477 1476 1475 1474 1473 1471 1470 1469 1467 1465 1462 1461 1461 1461 1460 1456 1454 1455 1455 1455 1457 1456 1455 1457 1457 1459 1461 1461 1463 1464 1466 1467 1469
1508 1514 1487 1475 1474 1475 1477 1475 1471 1473 1475 1475 1474 1474 1474 1474 1472 1470 1468 1467 1466 1464 1461 1460 1459 1458 1458 1456 1456 1456 1457 1457 1456 1455 1456 1456 1457 1459 1461 1461 1461 1462 1464 1467
1505 1501 1488 1468 1469 1469 1471 1479 1469 1471 1473 1474 1473 1475 1470 1471 1472 1470 1468 1466 1464 1464 1463 1461 1458 1456 1455 1455 1457 1456 1454 1455 1455 1453 1452 1455 1456 1455 1458 1459 1459 1458 1460 1462
1506 1504 1481 1465 1467 1469 1475 1473 1466 1468 1471 1471 1471 1470 1470 1468 1467 1468 1468 1466 1464 1462 1460 1459 1458 1456 1455 1453 1452 1452 1452 1450 1448 1451 1449 1451 1453 1453 1454 1454 1457 1454 1457 1459
1498 1499 1490 1462 1469 1471 1463 1461 1462 1464 1466 1467 1466 1468 1468 1468 1467 1465 1464 1464 1463 1462 1460 1458 1456 1454 1453 1452 1450 1447 1446 1444 1443 1444 1448 1447 1448 1450 1450 1450 1451 1452 1452 1455
1481 1471 1456 1456 1455 1457 1458 1459 1461 1462 1463 1464 1465 1465 1465 1465 1464 1463 1462 1461 1460 1460 1459 1457 1455 1453 1451 1448 1446 1444 1442 1441 1441 1442 1440 1441 1444 1446 1444 1443 1445 1449 1448 1451
1468 1452 1451 1451 1453 1454 1455 1456 1458 1460 1461 1461 1461 1463 1462 1462 1461 1461 1460 1459 1458 1457 1457 1456 1455 1454 1451 1448 1446 1443 1440 1439 1438 1439 1438 1439 1440 1440 1441 1442 1442 1442 1443 1448
1463 1451 1450 1447 1447 1449 1450 1452 1455 1457 1458 1458 1460 1459 1459 1459 1458 1458 1459 1458 1457 1456 1455 1454 1453 1451 1450 1447 1444 1442 1441 1439 1438 1438 1436 1435 1435 1435 1434 1436 1437 1439 1442 1443
1451 1439 1440 1438 1439 1444 1446 1449 1451 1452 1454 1456 1457 1457 1457 1456 1455 1455 1456 1456 1454 1454 1454 1453 1451 1450 1448 1446 1443 1442 1441 1440 1438 1436 1434 1432 1431 1431 1431 1431 1432 1433 1435 1437
1436 1436 1437 1438 1439 1441 1444 1446 1447 1449 1451 1451 1453 1454 1454 1454 1453 1453 1452 1452 1453 1452 1449 1449 1448 1448 1446 1444 1443 1440 1439 1439 1438 1436 1434 1432 1430 1430 1429 1428 1428 1429 1429 1430
1432 1434 1436 1436 1436 1439 1441 1443 1444 1446 1448 1448 1450 1450 1451 1451 1451 1450 1450 1450 1450 1450 1449 1449 1447 1445 1444 1443 1441 1439 1437 1435 1434 1433 1432 1430 1429 1428 1426 1425 1424 1423 1424 1424
1424 1427 1429 1433 1434 1436 1438 1439 1441 1442 1444 1446 1446 1447 1447 1448 1447 1446 1446 1447 1447 1446 1446 1445 1444 1443 1442 1440 1438 1436 1434 1432 1431 1429 1427 1425 1424 1423 1423 1422 1420 1418 1418 1419
1417 1421 1425 1427 1429 1431 1433 1435 1436 1438 1440 1441 1442 1443 1443 1443 1442 1443 1442 1442 1442 1443 1442 1440 1439 1439 1437 1437 1435 1433 1430 1429 1427 1425 1423 1421 1419 1418 1417 1416 1415 1415 1414 1414
1411 1416 1417 1420 1422 1425 1427 1430 1432 1434 1436 1437 1438 1439 1439 1440 1439 1439 1439 1439 1438 1438 1437 1436 1436 1434 1433 1432 1430 1428 1427 1425 1422 1421 1419 1417 1415 1413 1412 1411 1410 1410 1410 1411
1400 1403 1406 1411 1415 1420 1424 1427 1429 1431 1433 1434 1435 1435 1435 1435 1435 1435 1435 1435 1434 1433 1433 1431 1431 1430 1428 1426 1425 1423 1422 1420 1419 1416 1414 1413 1410 1408 1407 1407 1406 1406 1406 1406
1395 1399 1403 1408 1413 1417 1420 1423 1426 1428 1430 1431 1432 1432 1432 1432 1432 1432 1431 1431 1430 1429 1429 1428 1427 1425 1424 1422 1421 1419 1417 1416 1414 1412 1410 1408 1407 1405 1403 1402 1401 1400 1400 1400
1391 1397 1401 1405 1409 1413 1417 1421 1423 1426 1427 1428 1430 1430 1430 1430 1430 1429 1428 1428 1427 1426 1425 1424 1422 1421 1419 1417 1416 1414 1413 1411 1410 1408 1406 1404 1403 1402 1400 1398 1396 1395 1395 1395
1387 1394 1398 1402 1405 1410 1414 1418 1420 1422 1424 1426 1428 1428 1428 1428 1427 1426 1426 1424 1425 1422 1421 1420 1418 1416 1415 1413 1411 1410 1408 1407 1405 1403 1402 1400 1399 1397 1396 1395 1394 1392 1391 1390
1384 1391 1397 1400 1403 1407 1411 1415 1417 1420 1422 1423 1424 1425 1425 1425 1424 1423 1423 1421 1419 1418 1417 1415 1414 1412 1410 1408 1406 1405 1404 1402 1400 1398 1397 1395 1394 1393 1391 1391 1390 1390 1389 1388
1383 1389 1395 1399 1401 1404 1408 1412 1415 1417 1419 1420 1421 1421 1421 1421 1420 1419 1419 1418 1416 1415 1413 1412 1409 1407 1405 1403 1401 1399 1398 1396 1394 1393 1391 1390 1389 1388 1387 1387 1386 1386 1386 1385
1383 1387 1393 1397 1400 1401 1404 1408 1411 1414 1416 1417 1417 1417 1417 1417 1417 1416 1415 1414 1413 1412 1410 1408 1405 1403 1401 1398 1396 1394 1392 1391 1389 1387 1385 1385 1384 1383 1383 1383 1383 1383 1382 1381
1381 1384 1390 1394 1396 1399 1403 1406 1409 1411 1413 1413 1413 1413 1413 1413 1414 1414 1413 1412 1411 1409 1407 1404 1401 1398 1396 1393 1391 1388 1386 1384 1383 1381 1380 1379 1379 1378 1378 1378 1379 1378 1378 1378
1380 1382 1386 1391 1395 1398 1401 1403 1407 1409 1410 1410 1411 1411 1410 1411 1411 1411 1410 1408 1407 1404 1402 1399 1395 1392 1389 1387 1384 1382 1379 1377 1376 1375 1374 1373 1373 1373 1372 1372 1373 1373 1373 1374
1380 1383 1385 1389 1393 1396 1398 1400 1403 1405 1407 1408 1408 1408 1408 1408 1408 1407 1406 1404 1401 1398 1395 1392 1389 1386 1383 1380 1377 1375 1373 1370 1369 1368 1367 1366 1365 1366 1366 1367 1367 1367 1368 1370